Regional Weather Roundup
Issued by NWS Kansas City/Pleasant Hill, MO

Home | Current Version | Previous Version | Graphics & Text | Print | Product List | Glossary Off
Versions: 1 2 3 4 5 6 7 8 9 10 11 12 13 14 15 16 17 18 19 20 21 22 23 24 25 26 27

000
ASUS43 KEAX 231210
RWREAX

WEATHER ROUNDUP FOR EASTERN KANSAS AND NORTHWEST MISSOURI
NATIONAL WEATHER SERVICE KANSAS CITY/PLEASANT HILL MO
700 AM CDT MON OCT 23 2017

KSZ040-057-103>105-MOZ028-029-037-043-231300-
...KANSAS CITY METROPOLITAN AREA...

CITY           SKY/WX    TMP DP  RH WIND       PRES   REMARKS
K.C. INTL      PTCLDY    45  39  79 S8        29.91F
6HR MIN TEMP:  42; 6HR MAX TEMP:  45;

K.C. DOWNTOWN  CLEAR     49  40  71 CALM      29.93S
6HR MIN TEMP:  47; 6HR MAX TEMP:  51;

LEES SUMMIT    CLEAR     46  40  79 SW9       29.93F
6HR MIN TEMP:  45; 6HR MAX TEMP:  49;

OLATHE - IXD   CLEAR     42  39  89 S7        29.94F
6HR MIN TEMP:  41; 6HR MAX TEMP:  45;

OLATHE - OJC   CLEAR     45  39  79 S6        29.93F
6HR MIN TEMP:  43; 6HR MAX TEMP:  47;

LAWRENCE       CLEAR     41  39  93 E6        29.93F

$$

MOZ001>008-011>017-020>025-030>033-038>040-044>046-053-054-231300-
...NORTHERN AND CENTRAL MISSOURI...

CITY           SKY/WX    TMP DP  RH WIND       PRES   REMARKS
ST. JOSEPH     CLEAR     43  41  93 S3        29.91F
6HR MIN TEMP:  41; 6HR MAX TEMP:  47;

MOSBY          SUNNY     41  41 100 CALM      29.93S
WARRENSBURG    CLEAR     39  37  93 SE5       29.94F
WHITEMAN AFB   CLEAR     43  39  87 SW8       29.91F
6HR MIN TEMP:  42; 6HR MAX TEMP:  46;

CLINTON        CLEAR     45  41  87 S5        29.96F
SEDALIA        CLEAR     44  43  96 S8        29.97F
6HR MIN TEMP:  43; 6HR MAX TEMP:  49;

WARSAW         NOT AVBL
CHILLICOTHE      N/A     41  40  96 CALM      29.93F
6HR MIN TEMP:  40; 6HR MAX TEMP:  46;

KIRKSVILLE     PTCLDY    43  43 100 SE7       29.95R
6HR MIN TEMP:  42; 6HR MAX TEMP:  49;


$$

MOZ041-047>049-056>058-063>065-088>090-097-231300-
...EASTERN AND SOUTHERN MISSOURI...

CITY           SKY/WX    TMP DP  RH WIND       PRES   REMARKS
ST. LOUIS INTL CLOUDY    52  50  93 NW10      29.91F
6HR MIN TEMP:  51; 6HR MAX TEMP:  52; 6HR PCP:  0.05;

SPIRIT OF STL  CLOUDY    52  50  93 W5        29.92F
COLUMBIA       PTCLDY    47  44  90 W8        29.96F
JEFFERSON CITY PTCLDY    49  45  86 NW6       29.96F
ROLLA          CLOUDY    50  46  86 W9        29.97S
OSAGE BEACH    CLEAR     47  47 100 W6        29.99F
SPRINGFIELD    CLEAR     42  38  85 SW5       30.00F
BRANSON        PTCLDY    45  39  81 CALM      30.03S
JOPLIN         CLEAR     46  44  93 CALM      30.00F
WEST PLAINS    CLOUDY    50  44  80 VRB5      29.98S

$$

IAZ060-094-KSZ022-034>040-054-083-096-NEZ052-066-093-231300-
...KANSAS...SOUTHEAST NEBRASKA AND IOWA...

CITY           SKY/WX    TMP DP  RH WIND       PRES   REMARKS
TOPEKA         CLEAR     43  40  89 CALM      29.92F
6HR MIN TEMP:  41; 6HR MAX TEMP:  50;

MANHATTAN      CLEAR     47  40  76 SW6       29.93R
EMPORIA        CLEAR     49  38  65 SW9       29.93S
CHANUTE        CLEAR     46  40  79 S8        29.97F
WICHITA        CLEAR     44  42  93 S6        29.97R
OMAHA          MOCLDY    50  35  56 NW5       29.90R
LINCOLN        PTCLDY    55  37  50 N8        29.94R
FALLS CITY     CLEAR     44  37  76 S5        29.89S
LAMONI         CLEAR     44  39  82 S8        29.88F
DES MOINES     PTCLDY    45  39  79 S7        29.84F

$$





USA.gov is the U.S. government's official web portal to all federal, state and local government web resources and services.